Location: Chamouille
(49.4739°N, 3.6660°E)
Time: 13:14:32
(UTC+00:00)

Daily predictions for brighter satellites

Satellite Brightness Start Highest point End
(mag) Time Altitude Azimuth Time Altitude Azimuth Time Altitude Azimuth
Nadezhda 4 Rocket 4.1 20:20:37 10° S 20:26:35 58° E 20:32:34 10° NNE
Cosmos 304 Rocket 3.9 20:23:32 10° SSW 20:28:19 84° WNW 20:33:10 10° NNE
STARLINK-1138 4.4 20:26:15 10° W 20:30:20 55° N 20:34:25 10° ENE
Cosmos 1461 3.9 20:26:16 10° WSW 20:30:23 53° NW 20:34:45 10° NNE
Resurs 01 Rocket 2.2 20:26:51 10° S 20:31:15 60° WSW 20:35:40 10° NNW
USA 245 2.5 20:28:44 10° SSE 20:31:15 47° ENE 20:33:31 10° N
ATLAS CENTAUR R/B 3.3 20:29:53 10° SE 20:31:58 13° ESE 20:34:00 10° E
SL-27 R/B 3.1 20:29:30 10° N 20:32:57 43° ENE 20:36:19 10° SE
STARLINK-1233 4.3 20:29:17 10° WNW 20:33:22 55° N 20:37:27 10° E
STARLINK-1235 3.1 20:30:03 10° WNW 20:33:26 86° NNE 20:36:48 10° ESE
Cosmos 1437 Rocket 3.3 20:29:45 10° SSW 20:33:31 62° WNW 20:37:23 10° N
Okean 2 4.3 20:30:54 10° SSE 20:34:34 31° E 20:38:16 10° NNE
STARLINK-1143 4.5 20:31:15 10° W 20:35:21 54° N 20:39:26 10° ENE
STARLINK-1204 4.3 20:34:16 10° WNW 20:38:22 56° N 20:42:27 10° E
STARLINK-1241 4.5 20:36:17 10° W 20:40:22 53° N 20:44:26 10° ENE
STARLINK-1238 4.2 20:39:16 10° WNW 20:43:22 57° N 20:47:27 10° E
Cosmos 2082 Rocket 4.2 20:39:39 10° NW 20:44:08 24° WSW 20:48:35 10° SSW
Cosmos 2297 4.1 20:38:52 10° SW 20:44:33 74° WNW 20:50:19 10° NNE
STARLINK-1239 4.5 20:41:17 10° W 20:45:21 52° N 20:49:26 10° ENE
STARLINK-60 3.1 20:43:47 10° SW 20:46:51 49° SSE 20:49:57 10° ENE
STARLINK-1201 4.2 20:44:15 10° WNW 20:48:22 58° NNE 20:52:27 10° E
Cosmos 1766 3.3 20:47:26 10° N 20:51:27 76° E 20:55:27 10° SSE
Cosmos 1242 Rocket 4.0 20:48:44 11° SE 20:51:33 23° E 20:54:31 10° NE
BREEZE-M DEB 3.1 20:50:01 10° SSW 20:52:17 34° SE 20:56:59 10° ENE
Cosmos 2369 Rocket 2.4 20:47:16 10° S 20:52:41 49° ESE 20:58:06 10° NE
NOSS 2-2 (C) 3.4 20:49:37 10° SW 20:53:11 74° NW 20:57:19 10° NE
STARLINK-1206 4.1 20:49:14 10° WNW 20:53:21 60° NNE 20:57:27 10° E
Cosmos 1674 Rocket 4.4 20:49:45 10° SSW 20:54:03 53° WNW 20:58:25 10° N
Cosmos 1378 Rocket 3.9 20:49:55 10° SSW 20:54:17 68° W 20:58:39 10° N
STARLINK-1205 4.1 20:54:13 10° WNW 20:58:21 62° NNE 21:02:27 10° E
NOSS 3-2 (A) 4.3 20:51:13 10° NW 20:58:37 67° SW 21:06:43 11° SSE
ATLAS 2AS CENTAUR R/B 3.4 20:51:43 10° S 20:59:02 42° ESE 21:06:22 10° NE
STARLINK-1212 2.8 20:56:44 10° WNW 20:59:50 75° SSW 21:02:33 13° ESE
STARLINK-1105 2.8 20:57:14 10° WNW 21:00:20 74° SSW 21:03:01 13° ESE
STARLINK-1247 2.8 20:58:04 10° WNW 21:01:12 73° SSW 21:03:52 13° ESE
STARLINK-1227 2.8 20:58:33 10° WNW 21:01:40 73° SSW 21:04:18 13° ESE
STARLINK-1226 2.8 20:59:36 10° WNW 21:02:42 72° SSW 21:05:20 14° ESE
Cosmos 292 Rocket 4.2 20:58:33 10° S 21:03:08 44° ESE 21:07:46 10° NE
STARLINK-1218 4.0 20:59:14 10° WNW 21:03:22 64° NNE 21:07:28 10° E
STARLINK-1215 2.9 21:00:20 10° WNW 21:03:27 71° SSW 21:06:03 14° SE
ERS-1 Rocket 3.0 20:59:14 11° SSE 21:04:07 74° ENE 21:09:10 10° NNW
STARLINK-1229 2.7 21:01:09 10° WNW 21:04:08 69° SSW 21:06:32 14° SE
STARLINK-1270 2.8 21:01:58 10° WNW 21:04:57 68° SSW 21:07:19 15° SE
BREEZE-M DEB (TANK) 4.3 20:49:17 10° WNW 21:04:59 63° SW 21:09:24 13° SE
STARLINK-1209 3.1 21:02:00 10° WNW 21:05:02 53° SSW 21:07:22 15° SE
STARLINK-1217 2.9 21:02:12 10° WNW 21:05:19 69° SSW 21:07:50 14° SE
STARLINK-1189 2.8 21:04:16 10° WNW 21:07:15 66° SSW 21:09:34 15° SE
STARLINK-1254 4.0 21:04:11 10° WNW 21:08:20 66° NNE 21:12:27 10° E
STARLINK-1188 2.8 21:05:40 10° WNW 21:08:41 64° SSW 21:10:59 16° SE
Cosmos 1867 3.7 21:04:41 10° NW 21:10:10 72° NE 21:15:01 13° SE
STARLINK-1191 2.9 21:08:54 10° WNW 21:11:58 61° SSW 21:14:11 17° SE
STARLINK-1221 2.9 21:09:54 10° WNW 21:12:57 60° SSW 21:15:08 17° SE
USA 238 DEB 4.3 21:06:00 10° NW 21:13:00 56° WSW 21:19:44 12° SSE
USA 238 4.3 21:06:06 10° NW 21:13:06 56° WSW 21:19:50 12° SSE
STARLINK-1231 3.9 21:09:09 10° WNW 21:13:18 68° NNE 21:17:26 10° E
STARLINK-1444 1.8 21:11:32 10° SW 21:13:29 48° SSE 21:15:27 10° ENE
STARLINK-1452 1.8 21:11:35 10° SW 21:13:30 47° SSE 21:15:26 10° ENE
Cosmos 968 Rocket 3.5 21:08:20 10° NNW 21:13:30 73° ENE 21:17:48 15° SSE
STARLINK-1222 2.9 21:10:55 10° WNW 21:13:59 59° SSW 21:16:07 17° SE
STARLINK-1214 3.0 21:12:04 10° WNW 21:15:07 58° SSW 21:17:14 18° SE
STARLINK-1436 (VISORSAT) 1.8 21:13:18 10° SW 21:15:14 50° SSE 21:17:11 10° ENE
STARLINK-1450 1.8 21:13:24 10° SW 21:15:20 50° SSE 21:17:17 10° ENE
STARLINK-1392 1.8 21:13:29 10° SW 21:15:25 50° SSE 21:17:23 10° ENE
STARLINK-1398 1.8 21:13:29 10° SW 21:15:25 50° SSE 21:17:23 10° ENE
STARLINK-1399 1.8 21:13:30 10° SW 21:15:25 50° SSE 21:17:23 10° ENE
STARLINK-1393 1.8 21:13:30 10° SW 21:15:26 50° SSE 21:17:24 10° ENE
STARLINK-1395 1.8 21:13:31 10° SW 21:15:26 50° SSE 21:17:24 10° ENE
STARLINK-1394 1.8 21:13:31 10° SW 21:15:26 50° SSE 21:17:24 10° ENE
STARLINK-1415 1.8 21:13:31 10° SW 21:15:26 50° SSE 21:17:24 10° ENE
STARLINK-1414 1.8 21:13:31 10° SW 21:15:27 50° SSE 21:17:24 10° ENE
STARLINK-1396 1.8 21:13:32 10° SW 21:15:27 50° SSE 21:17:25 10° ENE
STARLINK-1397 1.8 21:13:32 10° SW 21:15:27 50° SSE 21:17:25 10° ENE
STARLINK-1416 1.8 21:13:32 10° SW 21:15:27 50° SSE 21:17:25 10° ENE
STARLINK-1404 1.8 21:13:32 10° SW 21:15:27 50° SSE 21:17:25 10° ENE
STARLINK-1401 1.8 21:13:32 10° SW 21:15:28 50° SSE 21:17:26 10° ENE
STARLINK-1419 1.8 21:13:32 10° SW 21:15:28 50° SSE 21:17:26 10° ENE
STARLINK-1408 1.8 21:13:33 10° SW 21:15:28 50° SSE 21:17:26 10° ENE
STARLINK-1453 1.8 21:13:33 10° SW 21:15:29 50° SSE 21:17:27 10° ENE
STARLINK-1437 1.8 21:13:34 10° SW 21:15:29 50° SSE 21:17:27 10° ENE
STARLINK-1417 1.8 21:13:34 10° SW 21:15:29 50° SSE 21:17:27 10° ENE
STARLINK-1402 1.8 21:13:34 10° SW 21:15:29 50° SSE 21:17:27 10° ENE
STARLINK-1420 1.8 21:13:34 10° SW 21:15:30 50° SSE 21:17:28 10° ENE
STARLINK-1413 1.8 21:13:35 10° SW 21:15:31 50° SSE 21:17:29 10° ENE
STARLINK-1458 1.8 21:13:35 10° SW 21:15:31 50° SSE 21:17:29 10° ENE
STARLINK-1406 1.8 21:13:35 10° SW 21:15:31 50° SSE 21:17:29 10° ENE
STARLINK-1460 1.8 21:13:36 10° SW 21:15:31 50° SSE 21:17:29 10° ENE
STARLINK-1422 1.8 21:13:36 10° SW 21:15:32 50° SSE 21:17:30 10° ENE
STARLINK-1440 1.8 21:13:37 10° SW 21:15:32 50° SSE 21:17:30 10° ENE
STARLINK-1445 1.8 21:13:37 10° SW 21:15:33 50° SSE 21:17:31 10° ENE
STARLINK-1443 1.8 21:13:38 10° SW 21:15:34 50° SSE 21:17:32 10° ENE
STARLINK-1456 1.8 21:13:40 10° SW 21:15:35 50° SSE 21:17:34 10° ENE
STARLINK-1457 1.8 21:13:40 10° SW 21:15:35 50° SSE 21:17:33 10° ENE
STARLINK-1454 1.8 21:13:39 10° SW 21:15:35 50° SSE 21:17:33 10° ENE
STARLINK-1446 1.8 21:13:39 10° SW 21:15:35 50° SSE 21:17:32 10° ENE
STARLINK-1451 1.8 21:13:40 10° SW 21:15:36 50° SSE 21:17:34 10° ENE
STARLINK-1447 1.8 21:13:41 10° SW 21:15:37 50° SSE 21:17:34 10° ENE
STARLINK-1455 1.8 21:13:41 10° SW 21:15:37 50° SSE 21:17:34 10° ENE
STARLINK-1442 1.8 21:13:41 10° SW 21:15:37 50° SSE 21:17:34 10° ENE
STARLINK-1449 1.8 21:13:42 10° SW 21:15:37 50° SSE 21:17:35 10° ENE
STARLINK-1448 1.8 21:13:42 10° SW 21:15:38 50° SSE 21:17:35 10° ENE
STARLINK-1441 1.8 21:13:42 10° SW 21:15:38 50° SSE 21:17:35 10° ENE
STARLINK-1407 1.8 21:13:44 10° SW 21:15:39 50° SSE 21:17:37 10° ENE
STARLINK-1405 1.8 21:13:43 10° SW 21:15:39 50° SSE 21:17:36 10° ENE
STARLINK-1400 1.8 21:13:44 10° SW 21:15:39 50° SSE 21:17:37 10° ENE
STARLINK-1423 1.8 21:13:43 10° SW 21:15:39 50° SSE 21:17:37 10° ENE
STARLINK-1421 1.8 21:13:43 10° SW 21:15:40 50° SSE 21:17:37 10° ENE
STARLINK-1410 1.8 21:13:44 10° SW 21:15:40 50° SSE 21:17:37 10° ENE
STARLINK-1439 1.8 21:13:45 10° SW 21:15:40 50° SSE 21:17:38 10° ENE
STARLINK-1409 1.8 21:13:46 10° SW 21:15:41 50° SSE 21:17:39 10° ENE
STARLINK-1351 1.8 21:13:46 10° SW 21:15:41 50° SSE 21:17:39 10° ENE
STARLINK-1434 1.8 21:13:46 10° SW 21:15:42 51° SSE 21:17:39 10° ENE
STARLINK-1418 1.8 21:13:46 10° SW 21:15:42 51° SSE 21:17:39 10° ENE
STARLINK-1370 1.8 21:13:46 10° SW 21:15:42 51° SSE 21:17:40 10° ENE
STARLINK-1403 1.8 21:13:47 10° SW 21:15:43 51° SSE 21:17:41 10° ENE
STARLINK-1433 1.8 21:13:48 10° SW 21:15:43 51° SSE 21:17:41 10° ENE
STARLINK-1411 1.8 21:13:49 10° SW 21:15:46 51° SSE 21:17:43 10° ENE
STARLINK-1438 1.8 21:13:50 10° SW 21:15:46 51° SSE 21:17:43 10° ENE
STARLINK-1412 1.8 21:13:50 10° SW 21:15:46 51° SSE 21:17:43 10° ENE
Cosmos 1092 Rocket 4.0 21:10:18 10° S 21:16:26 84° E 21:22:38 10° N
Landsat 7 4.4 21:12:02 10° S 21:16:41 55° W 21:21:23 10° NNW
STARLINK-1232 3.8 21:14:11 10° WNW 21:18:20 71° NNE 21:22:28 10° ESE
STARLINK-29 3.1 21:15:44 10° SW 21:18:51 47° SSE 21:21:58 10° ENE
Cosmos 1975 Rocket 3.0 21:14:43 10° S 21:19:08 80° E 21:23:32 10° NNE
STARLINK-1234 3.5 21:15:51 10° WNW 21:19:12 48° SSW 21:21:28 18° SE
STARLINK-1228 3.6 21:16:44 10° WNW 21:20:11 48° SSW 21:22:31 18° SE
Cosmos 1025 Rocket 4.0 21:17:47 15° SE 21:20:32 30° E 21:24:18 10° NNE
STARLINK-1208 3.8 21:19:08 10° WNW 21:23:17 74° NNE 21:27:26 10° ESE
Cosmos 1378 4.2 21:21:12 10° SSW 21:24:46 45° WNW 21:28:21 10° N
Cosmos 1805 4.4 21:21:21 10° NNW 21:25:01 39° W 21:28:40 10° SSW
STARLINK-1225 4.5 21:21:17 10° WNW 21:25:21 51° N 21:29:25 10° E
COSMOS 2455 3.5 21:21:21 11° S 21:26:34 35° ESE 21:31:57 10° NE
BREEZE-M DEB (TANK) 3.9 21:10:48 10° WSW 21:27:53 73° SSE 21:32:05 10° E
STARLINK-1271 3.7 21:24:08 10° WNW 21:28:18 77° NNE 21:32:21 11° ESE
STARLINK-1187 3.5 21:26:04 10° WNW 21:29:08 42° SSW 21:30:51 22° SSE
Cosmos 1470 2.8 21:26:21 10° N 21:30:12 64° ENE 21:32:50 19° SSE
STARLINK-1230 4.5 21:26:16 10° WNW 21:30:20 51° N 21:34:24 10° E
ATLAS CENTAUR R/B 3.5 21:29:58 10° NNW 21:30:50 12° NNE 21:31:46 10° NE
STARLINK-1154 3.7 21:29:06 10° WNW 21:33:16 80° NNE 21:37:07 12° ESE
Cosmos 1726 3.4 21:31:47 10° N 21:35:06 29° ENE 21:37:13 17° ESE
STARLINK-1243 4.4 21:31:17 10° WNW 21:35:21 52° N 21:39:26 10° E
Cosmos 1340 Rocket 4.0 21:32:00 10° N 21:35:42 32° ENE 21:38:13 17° SE
STARLINK-1197 3.6 21:34:04 10° WNW 21:38:14 84° NNE 21:41:53 13° ESE
STARLINK-1320 4.1 21:39:32 23° SE 21:39:32 23° SE 21:41:47 10° E
STARLINK-1322 4.0 21:39:49 23° SE 21:39:49 23° SE 21:42:06 10° E
Cosmos 1733 4.3 21:36:14 10° NNW 21:39:47 38° W 21:43:08 11° SSW
STARLINK-1324 4.0 21:40:12 24° SE 21:40:12 24° SE 21:42:28 10° E
STARLINK-1294 4.0 21:40:31 23° SE 21:40:31 23° SE 21:42:45 10° E
STARLINK-1236 4.4 21:36:16 10° WNW 21:40:21 52° N 21:44:25 10° E
STARLINK-1261 4.0 21:40:49 24° SE 21:40:49 24° SE 21:43:08 10° E
STARLINK-1325 4.0 21:41:09 24° SE 21:41:09 24° SE 21:43:29 10° E
STARLINK-1333 4.0 21:41:30 24° SE 21:41:30 24° SE 21:43:50 10° E
STARLINK-1334 4.0 21:41:49 24° SE 21:41:49 24° SE 21:44:10 10° E
STARLINK-1326 4.0 21:42:09 24° SE 21:42:09 24° SE 21:44:31 10° E
STARLINK-1323 4.0 21:42:28 25° SE 21:42:28 25° SE 21:44:51 10° E
STARLINK-1349 3.9 21:42:47 25° SE 21:42:47 25° SE 21:45:11 10° E
STARLINK-1350 4.5 21:40:46 18° S 21:42:36 25° SE 21:45:54 10° E
STARLINK-1336 3.9 21:43:07 25° SE 21:43:07 25° SE 21:45:31 10° E
STARLINK-1331 3.9 21:43:26 25° SE 21:43:26 25° SE 21:45:53 10° E
STARLINK-1198 3.6 21:39:05 10° WNW 21:43:15 87° NNE 21:46:41 15° ESE
STARLINK-1344 3.9 21:43:45 25° SE 21:43:45 25° SE 21:46:12 10° E
Cosmos 1842 3.6 21:39:56 10° SSW 21:43:47 62° WNW 21:47:39 10° N
STARLINK-1343 3.9 21:44:04 25° SE 21:44:04 25° SE 21:46:33 10° E
Lacrosse 4 Rocket 4.3 21:42:31 10° N 21:44:10 12° NNE 21:45:50 10° NE
STARLINK-1346 3.9 21:44:17 26° SE 21:44:17 26° SE 21:46:54 10° E
STARLINK-1328 3.9 21:44:43 26° SE 21:44:43 26° SE 21:47:12 10° E
STARLINK-1354 3.9 21:45:05 26° SE 21:45:05 26° SE 21:47:35 10° E
STARLINK-1347 3.9 21:45:23 26° SE 21:45:23 26° SE 21:47:54 10° E
STARLINK-1357 3.8 21:45:44 26° SE 21:45:44 26° SE 21:48:16 10° E
STARLINK-1335 3.8 21:46:00 26° SE 21:46:00 26° SE 21:48:34 10° E
RESURS DK-1 3.8 21:45:05 18° SE 21:46:04 20° ESE 21:49:07 10° ENE
STARLINK-1327 3.8 21:46:23 27° SE 21:46:23 27° SE 21:48:57 10° E
Cosmos 1455 Rocket 3.5 21:42:00 10° NNW 21:46:16 56° W 21:49:41 15° S
STARLINK-1340 3.8 21:46:43 27° SE 21:46:43 27° SE 21:49:19 10° E
STARLINK-1352 4.4 21:44:45 18° S 21:46:47 27° SE 21:50:09 10° E
STARLINK-1356 3.8 21:47:02 27° SE 21:47:02 27° SE 21:49:38 10° E
STARLINK-1345 3.8 21:47:21 27° SE 21:47:21 27° SE 21:49:59 10° E
STARLINK-1355 3.8 21:47:39 27° SE 21:47:39 27° SE 21:50:18 10° E
STARLINK-1321 3.8 21:47:59 27° SE 21:47:59 27° SE 21:50:38 10° E
EXPRESS MD2 3.9 21:44:19 10° W 21:47:57 87° N 21:55:25 10° E
Meteor 2-10 4.2 21:43:07 10° N 21:48:07 60° ENE 21:51:31 20° SSE
STARLINK-1199 3.6 21:44:02 10° WNW 21:48:12 89° SSW 21:51:27 16° ESE
STARLINK-1358 3.8 21:48:21 28° SE 21:48:21 28° SE 21:51:01 10° E
STARLINK-1332 3.8 21:48:39 28° SE 21:48:39 28° SE 21:51:18 10° E
STARLINK-1348 3.7 21:48:58 28° SE 21:48:58 28° SE 21:51:39 10° E
STARLINK-1330 3.7 21:49:18 28° SE 21:49:18 28° SE 21:52:00 10° E
STARLINK-1363 3.7 21:49:37 28° SE 21:49:37 28° SE 21:52:20 10° E
Cosmos 1953 2.8 21:45:55 10° N 21:49:47 48° ENE 21:51:59 23° SE
STARLINK-1337 3.7 21:49:57 28° SE 21:49:57 28° SE 21:52:41 10° E
STARLINK-1342 3.7 21:50:17 29° SE 21:50:17 29° SE 21:53:03 10° E
STARLINK-1269 4.3 21:46:16 10° WNW 21:50:21 54° N 21:54:26 10° E
STARLINK-1364 3.7 21:50:36 29° SE 21:50:38 29° SE 21:53:23 10° E
STARLINK-1376 3.7 21:50:56 29° SE 21:50:58 29° SE 21:53:43 10° E
STARLINK-1368 4.3 21:48:46 17° S 21:50:58 29° SE 21:54:24 10° E
CENTAUR R/B 3.5 21:43:19 10° NW 21:51:11 59° WSW 21:57:55 18° SSE
STARLINK-1360 3.7 21:51:15 29° SE 21:51:18 29° SE 21:54:04 10° E
STARLINK-1361 3.7 21:51:36 29° SE 21:51:38 29° SE 21:54:24 10° E
Cosmos 2263 4.2 21:46:13 10° SSW 21:51:50 86° WNW 21:57:30 10° NNE
USA 215 4.1 21:45:33 10° E 21:51:50 51° NNE 21:58:07 10° WNW
S3M 4.1 21:45:42 10° N 21:51:53 67° ENE 21:56:24 20° SSE
STARLINK-1367 3.7 21:51:50 29° SSE 21:51:57 29° SE 21:54:45 10° E
STARLINK-1366 3.6 21:52:14 29° SSE 21:52:18 30° SE 21:55:05 10° E
Cosmos 1503 Rocket 4.1 21:47:45 10° NNW 21:53:05 76° WSW 21:56:49 20° SSE
STARLINK-1210 3.5 21:49:01 10° WNW 21:53:11 85° SSW 21:56:14 18° ESE
SPOT 5 3.7 21:48:42 14° S 21:53:12 52° W 21:58:28 10° NNW
STARLINK-52 2.8 21:51:03 10° WSW 21:54:15 76° SSE 21:57:28 10° ENE
STARLINK-1369 4.2 21:52:47 17° SSW 21:55:10 31° SE 21:58:40 10° ENE
STARLINK-1200 4.3 21:51:15 10° WNW 21:55:21 55° N 21:59:26 10° E
Cosmos 2026 Rocket 4.3 21:49:27 10° SSW 21:55:44 70° W 22:02:09 10° N
STARLINK-1219 3.5 21:54:02 10° WNW 21:58:11 81° SSW 22:01:02 20° ESE
ATLAS 3B R/B 2.7 21:51:57 10° NW 21:58:45 88° SW 22:04:04 19° SE
Cosmos 1271 Rocket 2.7 21:56:18 18° SSW 21:59:09 87° W 22:03:08 10° NNE
STARLINK-1372 4.1 21:56:48 16° SSW 21:59:22 33° SE 22:02:56 10° ENE
SL-4 R/B 2.4 21:55:28 10° WSW 22:00:16 89° NW 22:05:09 10° ENE
STARLINK-1192 4.3 21:56:14 10° WNW 22:00:20 56° N 22:04:26 10° E
Cosmos 2297 Rocket 3.9 21:55:51 10° NNW 22:00:36 26° NE 22:05:18 10° E
Terra 2.3 21:58:22 17° S 22:01:52 55° W 22:06:34 10° NNW
STARLINK-1378 4.1 21:59:49 18° SSW 22:02:09 33° SE 22:05:42 10° ENE
Cosmos 1553 Rocket 4.0 21:56:41 10° NNW 22:02:58 79° W 22:07:36 19° S
STARLINK-1211 3.5 21:59:00 10° WNW 22:03:09 76° SSW 22:05:49 21° SE
Meteor 2-8 Rocket 4.5 21:57:14 10° N 22:03:25 83° E 22:07:46 21° SSE
SJ 16-02 3.9 22:01:30 10° NNE 22:03:39 13° NE 22:05:48 10° ENE
BREEZE-M DEB (TANK) 3.6 21:57:43 10° SSW 22:04:15 27° SSE 22:07:15 10° E
Cosmos 1943 Rocket 3.5 21:59:41 10° WSW 22:04:57 42° NW 22:10:18 10° NNE
STARLINK-1244 4.2 22:01:13 10° WNW 22:05:19 58° N 22:09:25 10° E
STARLINK-1379 4.0 22:03:11 18° SSW 22:05:28 35° SE 22:09:02 10° ENE
Aureole 3 3.7 22:02:54 10° N 22:05:44 32° ENE 22:06:42 25° ESE
FALCON 9 DEB 3.0 22:04:08 10° SW 22:07:32 67° SSE 22:10:57 10° ENE
SL-4 R/B 3.4 22:07:38 10° ENE 22:07:55 10° ENE 22:08:11 10° ENE
Cosmos 1758 3.8 22:03:56 10° NNW 22:07:57 57° W 22:10:28 21° SSW
STARLINK-1245 3.5 22:04:00 10° WNW 22:08:08 72° SSW 22:10:36 23° SE
STARLINK-1329 3.9 22:06:17 18° SSW 22:08:43 37° SE 22:12:19 10° ENE
Cosmos 1174 3.3 22:06:48 20° SSW 22:08:57 71° ESE 22:12:49 10° NE
SeaSat 1 3.7 22:05:31 10° NE 22:09:32 24° ESE 22:11:04 21° SE
STARLINK-1138 4.2 22:06:12 10° WNW 22:10:18 59° NNE 22:14:25 10° E
ATLAS CENTAUR R/B 1.3 22:05:58 10° SW 22:10:20 89° SE 22:14:27 10° NE
Cosmos 1707 2.7 22:08:16 22° S 22:10:42 86° W 22:14:36 10° N
COSMOS 2487 2.5 22:08:51 10° NNW 22:12:19 69° WSW 22:13:45 32° S
STARLINK-1233 3.6 22:08:57 10° WNW 22:13:05 68° SSW 22:15:21 25° SE
STARLINK-1362 3.8 22:11:07 15° SSW 22:13:59 40° SE 22:17:41 10° ENE
Cosmos 1354 Rocket 4.4 22:09:41 10° NNW 22:14:54 57° WSW 22:18:14 22° S
STARLINK-1143 4.1 22:11:11 10° WNW 22:15:18 61° NNE 22:19:26 10° E
STARLINK-1204 3.6 22:13:56 10° WNW 22:18:03 64° SSW 22:20:08 27° SE
STARLINK-1373 3.8 22:15:16 14° SSW 22:18:18 43° SE 22:22:02 10° ENE
EO 1 Del DPAF 3.6 22:14:48 10° NNE 22:18:28 46° E 22:19:51 31° SSE
Cosmos 1536 Rocket 3.6 22:16:15 21° SSW 22:19:06 82° WNW 22:23:31 10° N
STARLINK-1241 4.0 22:16:12 10° WNW 22:20:19 63° NNE 22:24:27 10° E
STARLINK-1390 3.7 22:18:23 16° SSW 22:21:09 44° SE 22:24:50 10° ENE
NOSS 3-4 (A) 3.5 22:15:28 10° SW 22:21:27 84° NW 22:27:55 10° NE
NOSS 3-4 (C) 3.5 22:15:34 10° SW 22:21:33 84° NW 22:28:01 10° NE
STARLINK-60 3.9 22:19:52 10° W 22:22:58 50° NNW 22:26:06 10° ENE
STARLINK-1238 3.7 22:18:56 10° WNW 22:23:02 60° SSW 22:24:55 29° SE
Meteor 1-16 Rocket 4.1 22:19:24 10° NNW 22:24:54 88° E 22:28:05 25° SSE
STARLINK-1239 4.0 22:21:10 10° WNW 22:25:19 65° NNE 22:29:26 10° E
Cosmos 1656 Rocket 4.0 22:20:25 10° SW 22:26:00 68° WNW 22:31:34 10° NNE
Cosmos 1242 Rocket 4.4 22:23:04 10° SW 22:26:18 29° WNW 22:29:33 10° N
STARLINK-1365 3.6 22:22:31 10° SW 22:26:21 49° SSE 22:30:12 10° ENE
Cosmos 1992 Rocket 4.5 22:21:46 10° SW 22:26:55 61° WNW 22:32:06 10° NNE
STARLINK-1201 3.7 22:23:55 10° WNW 22:28:00 56° SSW 22:29:42 31° SSE
Cosmos 2266 Rocket 3.9 22:24:05 22° S 22:28:04 73° E 22:34:06 10° NNE
Cosmos 2084 3.7 22:26:10 24° SSW 22:28:37 53° SE 22:32:59 10° NE
Cosmos 1655 Rocket 4.0 22:25:20 18° SSW 22:30:07 84° W 22:36:27 10° N
STARLINK-1240 3.9 22:26:08 10° WNW 22:30:17 67° NNE 22:34:25 10° E
ERBS 4.1 22:28:55 10° NW 22:31:55 30° NNE 22:34:55 10° E
STARLINK-1206 3.8 22:28:55 10° WNW 22:32:57 52° SSW 22:34:29 33° SSE
STARLINK-1216 3.9 22:31:08 10° WNW 22:35:17 70° NNE 22:39:20 11° ESE
Cosmos 2369 Rocket 3.8 22:31:44 10° WSW 22:36:54 35° NW 22:42:04 10° NNE
STARLINK-1205 3.9 22:33:54 10° WNW 22:37:54 49° SSW 22:39:16 34° SSE
Cosmos 2227 Rocket 3.3 22:33:13 10° NNW 22:38:32 38° NE 22:43:18 12° ESE
STARLINK-1237 3.8 22:36:06 10° WNW 22:40:15 73° NNE 22:44:05 12° ESE
STARLINK-1338 3.3 22:37:51 13° SW 22:41:03 59° SSE 22:44:47 10° ENE
STARLINK-1218 4.0 22:38:55 10° WNW 22:42:54 46° SW 22:44:04 35° S
Spot 4 3.9 22:42:23 29° S 22:44:55 79° WSW 22:49:47 10° NNW
STARLINK-1202 3.7 22:41:05 10° WNW 22:45:15 76° NNE 22:48:52 13° ESE
Cosmos 2292 Rocket 2.7 22:44:11 40° SSW 22:45:15 81° W 22:48:16 10° N
STARLINK-1452 3.8 22:45:20 10° WNW 22:47:10 31° N 22:49:03 10° ENE
STARLINK-1444 3.8 22:45:25 10° WNW 22:47:17 31° N 22:49:12 10° ENE
STARLINK-1254 4.1 22:43:53 10° WNW 22:47:49 42° SW 22:48:49 35° S
Cosmos 1908 3.1 22:44:33 10° N 22:48:23 90° W 22:49:45 38° S
STARLINK-1203 3.7 22:44:10 10° WNW 22:48:23 78° NNE 22:52:01 14° ESE
Cosmos 883 Rocket 4.5 22:42:30 10° NNW 22:48:39 78° W 22:52:19 26° S
Cosmos 2058 Rocket 3.8 22:44:26 10° N 22:48:44 44° ENE 22:50:50 26° SE
STARLINK-1436 (VISORSAT) 3.8 22:47:11 10° WNW 22:49:01 30° N 22:50:55 10° ENE
STARLINK-1450 3.8 22:47:17 10° WNW 22:49:07 30° N 22:51:02 10° ENE
STARLINK-1398 3.8 22:47:23 10° WNW 22:49:14 30° N 22:51:08 10° ENE
STARLINK-1392 3.8 22:47:23 10° WNW 22:49:14 30° N 22:51:07 10° ENE
STARLINK-1399 3.8 22:47:23 10° WNW 22:49:14 30° N 22:51:08 10° ENE
STARLINK-1393 3.8 22:47:24 10° WNW 22:49:15 30° N 22:51:08 10° ENE
STARLINK-1415 3.8 22:47:25 10° WNW 22:49:15 30° N 22:51:09 10° ENE
STARLINK-1395 3.8 22:47:25 10° WNW 22:49:15 30° N 22:51:09 10° ENE
STARLINK-1394 3.8 22:47:25 10° WNW 22:49:15 30° N 22:51:09 10° ENE
STARLINK-1414 3.8 22:47:25 10° WNW 22:49:16 30° N 22:51:09 10° ENE
STARLINK-1396 3.8 22:47:26 10° WNW 22:49:16 30° N 22:51:10 10° ENE
STARLINK-1397 3.8 22:47:26 10° WNW 22:49:16 30° N 22:51:10 10° ENE
STARLINK-1416 3.8 22:47:26 10° WNW 22:49:16 30° N 22:51:10 10° ENE
STARLINK-1404 3.8 22:47:26 10° WNW 22:49:17 30° N 22:51:10 10° ENE
STARLINK-1401 3.8 22:47:26 10° WNW 22:49:17 30° N 22:51:10 10° ENE
STARLINK-1419 3.8 22:47:27 10° WNW 22:49:17 30° N 22:51:11 10° ENE
STARLINK-1408 3.8 22:47:27 10° WNW 22:49:18 30° N 22:51:11 10° ENE
STARLINK-1437 3.8 22:47:28 10° WNW 22:49:18 30° N 22:51:11 10° ENE
STARLINK-1453 3.8 22:47:28 10° WNW 22:49:18 30° N 22:51:11 10° ENE
STARLINK-1417 3.8 22:47:28 10° WNW 22:49:19 30° N 22:51:12 10° ENE
STARLINK-1402 3.8 22:47:28 10° WNW 22:49:19 30° N 22:51:12 10° ENE
STARLINK-1420 3.8 22:47:29 10° WNW 22:49:19 30° N 22:51:13 10° ENE
STARLINK-1458 3.8 22:47:30 10° WNW 22:49:20 30° N 22:51:14 10° ENE
STARLINK-1413 3.8 22:47:30 10° WNW 22:49:20 30° N 22:51:14 10° ENE
STARLINK-1406 3.8 22:47:30 10° WNW 22:49:20 30° N 22:51:14 10° ENE
STARLINK-1460 3.8 22:47:30 10° WNW 22:49:20 30° N 22:51:14 10° ENE
STARLINK-1422 3.8 22:47:31 10° WNW 22:49:21 30° N 22:51:14 10° ENE
STARLINK-1440 3.8 22:47:30 10° WNW 22:49:21 30° N 22:51:15 10° ENE
STARLINK-1445 3.8 22:47:31 10° WNW 22:49:22 30° N 22:51:16 10° ENE
STARLINK-1443 3.8 22:47:32 10° WNW 22:49:23 30° N 22:51:17 10° ENE
STARLINK-1446 3.8 22:47:33 10° WNW 22:49:24 30° N 22:51:17 10° ENE
STARLINK-1454 3.8 22:47:33 10° WNW 22:49:24 30° N 22:51:18 10° ENE
STARLINK-1451 3.8 22:47:34 10° WNW 22:49:25 30° N 22:51:19 10° ENE
STARLINK-1457 3.8 22:47:34 10° WNW 22:49:25 30° N 22:51:18 10° ENE
STARLINK-1456 3.8 22:47:34 10° WNW 22:49:25 30° N 22:51:18 10° ENE
STARLINK-1447 3.8 22:47:35 10° WNW 22:49:25 30° N 22:51:19 10° ENE
STARLINK-1455 3.8 22:47:35 10° WNW 22:49:27 30° N 22:51:20 10° ENE
STARLINK-1442 3.8 22:47:36 10° WNW 22:49:27 30° N 22:51:20 10° ENE
STARLINK-1449 3.8 22:47:36 10° WNW 22:49:27 30° N 22:51:20 10° ENE
STARLINK-1448 3.8 22:47:36 10° WNW 22:49:27 30° N 22:51:20 10° ENE
STARLINK-1441 3.8 22:47:36 10° WNW 22:49:27 30° N 22:51:21 10° ENE
STARLINK-1410 3.8 22:47:38 10° WNW 22:49:28 30° N 22:51:22 10° ENE
STARLINK-1407 3.8 22:47:38 10° WNW 22:49:29 30° N 22:51:23 10° ENE
STARLINK-1405 3.8 22:47:37 10° WNW 22:49:29 30° N 22:51:22 10° ENE
STARLINK-1400 3.8 22:47:38 10° WNW 22:49:29 30° N 22:51:23 10° ENE
STARLINK-1423 3.8 22:47:38 10° WNW 22:49:29 30° N 22:51:22 10° ENE
STARLINK-1421 3.8 22:47:38 10° WNW 22:49:29 30° N 22:51:22 10° ENE
STARLINK-1439 3.8 22:47:39 10° WNW 22:49:30 30° N 22:51:24 10° ENE
STARLINK-1351 3.8 22:47:40 10° WNW 22:49:31 30° N 22:51:24 10° ENE
STARLINK-1409 3.8 22:47:40 10° WNW 22:49:31 30° N 22:51:24 10° ENE
STARLINK-1434 3.8 22:47:40 10° WNW 22:49:31 30° N 22:51:25 10° ENE
STARLINK-1418 3.8 22:47:40 10° WNW 22:49:31 30° N 22:51:25 10° ENE
STARLINK-1370 3.8 22:47:41 10° WNW 22:49:32 30° N 22:51:25 10° ENE
STARLINK-1403 3.8 22:47:42 10° WNW 22:49:33 30° N 22:51:26 10° ENE
STARLINK-1433 3.8 22:47:42 10° WNW 22:49:33 30° N 22:51:27 10° ENE
STARLINK-1411 3.8 22:47:44 10° WNW 22:49:35 30° N 22:51:28 10° ENE
STARLINK-1438 3.8 22:47:44 10° WNW 22:49:35 30° N 22:51:29 10° ENE
STARLINK-1412 3.8 22:47:45 10° WNW 22:49:35 30° N 22:51:29 10° ENE
Cosmos 1606 Rocket 3.5 22:45:22 10° N 22:49:44 84° E 22:51:37 34° SSE
ATLAS 2AS CENTAUR R/B 3.5 22:41:53 10° SW 22:49:51 66° NW 22:57:43 10° NE
STARLINK-1371 3.3 22:46:38 10° SW 22:50:27 67° SSE 22:54:17 10° ENE
Cosmos 2098 Rocket 4.4 22:45:55 23° S 22:50:49 77° E 22:58:11 10° NNE
STARLINK-1231 4.2 22:48:53 10° WNW 22:52:46 40° SW 22:53:35 35° S
STARLINK-1341 3.3 22:50:39 10° SW 22:54:29 71° SSE 22:58:20 10° ENE
Meteor 2-5 Rocket 3.9 22:51:49 28° SSE 22:54:40 58° E 23:00:15 10° NNE
STARLINK-29 3.8 22:51:51 10° W 22:55:00 51° NNW 22:58:09 10° ENE
STARLINK-1246 3.6 22:51:03 10° WNW 22:55:14 82° NNE 22:58:27 16° ESE
ALOS 2 2.7 22:53:44 31° SSE 22:55:44 70° ENE 23:00:07 10° N
KORONAS-FOTON 3.7 22:56:12 38° S 22:57:36 88° ESE 23:01:31 10° N
STARLINK-1232 4.2 22:53:56 10° WNW 22:57:46 37° SW 22:58:25 34° SSW
STARLINK-1374 3.3 22:54:34 10° WSW 22:58:23 74° SSE 23:02:14 10° ENE
STARLINK-1224 3.6 22:56:03 10° WNW 23:00:13 86° NNE 23:03:14 18° ESE
CZ-4C R/B 3.4 22:59:36 20° SE 23:00:38 21° ESE 23:04:49 10° ENE
STARLINK-1339 3.2 22:58:31 10° WSW 23:02:21 78° SSE 23:06:12 10° ENE
STARLINK-1208 4.3 22:58:54 10° WNW 23:02:41 34° SW 23:03:10 33° SSW
In-Cosmos 22 4.5 22:59:30 20° SSW 23:03:09 58° WNW 23:08:24 10° N
Cosmos 1300 3.4 23:00:01 10° N 23:03:42 44° ENE 23:05:03 31° SE
STARLINK-1225 3.5 23:01:01 10° WNW 23:05:12 90° NNE 23:08:01 20° ESE
STARLINK-1271 4.4 23:03:57 10° WNW 23:07:39 32° SW 23:07:58 32° SSW
STARLINK-1377 3.3 23:04:50 10° WSW 23:08:46 84° SSE 23:12:43 10° ENE
Nimbus 7 Rocket 4.4 23:03:13 10° NNE 23:09:19 77° ESE 23:12:50 27° S
STARLINK-1230 3.5 23:05:59 10° WNW 23:10:09 86° SSW 23:12:46 22° ESE
Cosmos 1726 3.9 23:07:11 10° NW 23:10:11 23° W 23:11:43 18° WSW
Cosmos 1340 Rocket 4.5 23:08:40 10° NW 23:12:02 25° W 23:13:48 19° SW
COSMOS 2455 3.5 23:06:25 10° SW 23:12:18 54° NW 23:18:15 10° NNE
STARLINK-1353 3.4 23:08:58 10° WSW 23:12:55 87° SSE 23:16:52 10° ENE
Cosmos 1674 3.1 23:11:24 31° SW 23:12:56 56° WNW 23:16:42 10° N
STARLINK-1320 3.0 23:11:40 10° WSW 23:14:46 73° NNW 23:17:54 10° ENE
STARLINK-1322 3.0 23:11:58 10° WSW 23:15:04 73° NNW 23:18:13 10° ENE
STARLINK-1375 3.3 23:11:14 10° WSW 23:15:06 89° SSE 23:18:59 10° ENE
STARLINK-1243 3.5 23:10:59 10° WNW 23:15:09 82° SSW 23:17:34 24° ESE
STARLINK-1324 3.0 23:12:21 10° WSW 23:15:28 73° NNW 23:18:35 10° ENE
STARLINK-1294 3.0 23:12:38 10° WSW 23:15:45 73° NNW 23:18:53 10° ENE
STARLINK-1261 3.0 23:13:00 10° WSW 23:16:07 72° NNW 23:19:15 10° ENE
STARLINK-1325 3.0 23:13:21 10° WSW 23:16:28 72° NNW 23:19:36 10° ENE
Cosmos 2228 3.4 23:12:39 10° NNW 23:16:47 52° W 23:18:24 32° SSW
STARLINK-1333 3.0 23:13:42 10° WSW 23:16:49 72° NNW 23:19:57 10° ENE
STARLINK-1334 3.0 23:14:02 10° WSW 23:17:09 72° NNW 23:20:16 10° ENE
STARLINK-1326 3.0 23:14:23 10° WSW 23:17:29 71° NNW 23:20:37 10° ENE
Thor Agena Rocket 4.3 23:12:27 10° N 23:17:35 51° WNW 23:21:25 17° SW
STARLINK-1323 3.1 23:14:42 10° WSW 23:17:49 71° NNW 23:20:56 10° ENE
STARLINK-1349 3.1 23:15:02 10° WSW 23:18:08 71° NNW 23:21:16 10° ENE
STARLINK-1336 3.1 23:15:22 10° WSW 23:18:29 70° NNW 23:21:37 10° ENE
STARLINK-1331 3.1 23:15:44 10° WSW 23:18:50 70° NNW 23:21:58 10° ENE
STARLINK-1344 3.1 23:16:03 10° WSW 23:19:10 70° NNW 23:22:17 10° ENE
STARLINK-1343 3.1 23:16:24 10° WSW 23:19:30 70° NNW 23:22:38 10° ENE
Cosmos 921 Rocket 2.9 23:18:04 36° SSW 23:19:47 82° ESE 23:24:12 10° NNE
STARLINK-1346 3.1 23:16:42 10° WSW 23:19:50 70° NNW 23:22:59 10° ENE
STARLINK-1236 3.5 23:15:59 10° WNW 23:20:08 78° SSW 23:22:21 26° SE
STARLINK-1328 3.1 23:17:03 10° WSW 23:20:09 69° NNW 23:23:16 10° ENE
STARLINK-1354 3.1 23:17:25 10° WSW 23:20:32 69° NNW 23:23:39 10° ENE
STARLINK-1347 3.1 23:17:44 10° WSW 23:20:51 69° NNW 23:23:58 10° ENE
STARLINK-1357 3.1 23:18:07 10° WSW 23:21:13 68° NNW 23:24:20 10° ENE
STARLINK-1350 3.4 23:17:17 10° WSW 23:21:13 86° NNW 23:25:11 10° ENE
STARLINK-1335 3.1 23:18:23 10° WSW 23:21:30 68° NNW 23:24:37 10° ENE
Cosmos 220 Rocket 4.0 23:20:04 35° SSW 23:21:52 78° ESE 23:26:20 10° NNE
STARLINK-1327 3.1 23:18:47 10° WSW 23:21:54 68° NNW 23:25:00 10° ENE
STARLINK-1340 3.1 23:19:08 10° WSW 23:22:14 67° NNW 23:25:21 10° ENE
Cosmos 1437 3.0 23:22:12 45° ESE 23:22:20 46° E 23:25:15 10° NNE
Timation 2 Rocket 4.4 23:16:25 10° NW 23:22:23 48° WSW 23:25:18 28° SSW
STARLINK-1356 3.1 23:19:28 10° WSW 23:22:34 67° NNW 23:25:42 10° ENE
STARLINK-1345 3.2 23:19:48 10° WSW 23:22:55 67° NNW 23:26:01 10° ENE
STARLINK-1355 3.2 23:20:07 10° WSW 23:23:14 67° NNW 23:26:20 10° ENE
STARLINK-1321 3.2 23:20:27 10° WSW 23:23:33 66° NNW 23:26:41 10° ENE
RESURS DK-1 3.1 23:20:55 18° SW 23:23:46 50° NW 23:27:50 10° NNE
STARLINK-1358 3.2 23:20:50 10° WSW 23:23:56 66° NNW 23:27:03 10° ENE
Lacrosse 4 Rocket 2.4 23:19:52 10° NNW 23:24:02 43° NE 23:26:59 17° ESE
STARLINK-1332 3.2 23:21:08 10° WSW 23:24:14 66° NNW 23:27:21 10° ENE
STARLINK-1348 3.2 23:21:28 10° WSW 23:24:34 66° NNW 23:27:41 10° ENE
STARLINK-1330 3.2 23:21:49 10° WSW 23:24:55 66° NNW 23:28:02 10° ENE
STARLINK-1363 3.2 23:22:08 10° WSW 23:25:14 65° NNW 23:28:21 10° ENE
STARLINK-1352 3.5 23:21:29 10° WSW 23:25:27 82° NNW 23:29:24 10° ENE
STARLINK-1337 3.2 23:22:30 10° WSW 23:25:36 65° NNW 23:28:43 10° ENE
STARLINK-1342 3.2 23:22:51 10° WSW 23:25:57 65° NNW 23:29:04 10° ENE
STARLINK-1364 3.2 23:23:12 10° W 23:26:17 65° NNW 23:29:24 10° ENE
STARLINK-1376 3.2 23:23:31 10° W 23:26:37 64° NNW 23:29:45 10° ENE
STARLINK-1360 3.2 23:23:52 10° W 23:26:58 64° NNW 23:30:05 10° ENE
BREEZE-M R/B 3.7 23:18:53 10° SW 23:27:14 58° SSE 23:31:14 10° E
STARLINK-1361 3.2 23:24:12 10° W 23:27:18 64° NNW 23:30:25 10° ENE
STARLINK-1367 3.3 23:24:30 10° W 23:27:37 64° NNW 23:30:46 10° ENE
Cosmos 1980 Rocket 4.1 23:25:34 12° ESE 23:27:43 15° E 23:30:44 10° ENE
Okean 1-7 Rocket 3.6 23:25:56 36° S 23:27:46 84° E 23:32:21 10° N
STARLINK-1366 3.3 23:24:53 10° W 23:27:59 63° NNW 23:31:05 10° ENE
STARLINK-1368 3.5 23:25:43 10° WSW 23:29:40 79° NNW 23:33:38 10° ENE
STARLINK-1269 3.5 23:25:57 10° WNW 23:30:05 69° SSW 23:31:55 31° SE
STARLINK-52 4.2 23:27:27 10° W 23:30:33 44° N 23:33:39 10° ENE
Cosmos 1726 Rocket 4.2 23:29:10 10° NNW 23:33:18 44° W 23:34:55 30° SW
STARLINK-1369 3.6 23:29:57 10° WSW 23:33:54 76° NNW 23:37:52 10° ENE
USA 215 3.2 23:28:00 10° ESE 23:34:35 88° NNE 23:41:10 10° WNW
STARLINK-1200 3.5 23:30:56 10° WNW 23:35:03 65° SSW 23:36:42 34° SE
Cosmos 1892 Rocket 3.7 23:34:23 33° SSW 23:36:15 66° WNW 23:40:36 10° N
SL-4 R/B 2.9 23:37:22 18° WNW 23:37:22 18° WNW 23:38:23 10° NW
STARLINK-1372 3.7 23:34:12 10° WSW 23:38:09 73° NNW 23:42:07 10° ENE
Meteor 1-24 Rocket 3.6 23:36:45 30° SSW 23:39:33 84° WNW 23:45:09 10° N
Cosmos 1455 3.9 23:36:40 10° NNE 23:39:49 25° ENE 23:41:40 17° ESE
Helios 1A 2.9 23:38:21 39° S 23:39:49 77° WSW 23:44:02 10° NNW
STARLINK-1192 3.6 23:35:55 10° WNW 23:40:00 61° SSW 23:41:28 36° SE
SL-4 R/B 2.7 23:35:26 10° W 23:40:17 67° N 23:45:05 10° E
ATLAS 5 CENTAUR R/B 2.9 23:37:31 10° WSW 23:40:20 27° NW 23:42:13 10° NNE
STARLINK-1378 3.7 23:36:45 10° WSW 23:40:39 72° NNW 23:44:33 10° ENE
Cosmos 2263 Rocket 4.4 23:37:43 10° N 23:42:06 23° NE 23:46:27 10° E
SJ 16-02 1.4 23:38:34 10° NNW 23:43:03 79° ENE 23:44:59 33° SSE
STARLINK-1379 3.7 23:39:59 10° WSW 23:43:51 69° NNW 23:47:43 10° ENE
Cosmos 1626 2.2 23:42:49 41° SW 23:43:56 66° WNW 23:47:39 10° N
FALCON 9 DEB 4.1 23:41:21 10° W 23:44:42 48° N 23:48:03 10° ENE
STARLINK-1244 3.6 23:40:53 10° WNW 23:44:57 57° SSW 23:46:13 39° SSE
Cosmos 2297 Rocket 2.2 23:39:32 10° NNW 23:45:11 72° WSW 23:48:02 30° SSE
SL-16 R/B 4.4 23:42:00 10° ESE 23:46:45 24° NE 23:51:32 10° N
STARLINK-1329 3.7 23:43:16 10° W 23:47:09 68° NNW 23:51:01 10° ENE
SeaSat 1 2.9 23:42:29 10° NNE 23:47:22 60° NW 23:50:50 19° SW
Cosmos 2219 3.4 23:41:54 10° NW 23:47:27 57° WSW 23:50:00 31° S
ATLAS 3B R/B 4.1 23:43:37 10° WNW 23:48:40 22° WSW 23:51:18 18° SW
ATLAS CENTAUR R/B 3.9 23:46:35 10° W 23:49:44 20° NNW 23:52:46 10° NNE
STARLINK-1138 3.7 23:45:52 10° WNW 23:49:55 54° SSW 23:51:00 40° SSE
Cosmos 1656 3.7 23:48:16 31° S 23:51:00 67° ESE 23:56:34 10° NNE
STARLINK-1362 3.8 23:48:44 10° W 23:52:38 65° NNW 23:56:33 10° ENE
Cosmos 468 Rocket 4.2 23:52:35 32° SSE 23:54:43 55° ESE 23:59:44 10° NNE
STARLINK-1143 3.8 23:50:52 10° WNW 23:54:54 50° SSW 23:55:48 41° S
